Wolf Creek, OR

9:49 PM PDT on August 24, 2016 (GMT -0700)
Sexton Summit

Weather History for KSXT - July, 2013

Change the Weather History Date:

Sunday, July 7, 2013

  Actual Average Record
Temperature  
Mean Temperature 62 °F -  
Max Temperature 73 °F 72 °F 88 °F (2010)
Min Temperature 50 °F 49 °F 42 °F (1999)
Degree Days  
Heating Degree Days 4    
Growing Degree Days 12 (Base 50)    
Moisture  
Dew Point 49 °F    
Average Humidity 70    
Maximum Humidity 96    
Minimum Humidity 34    
Precipitation  
Precipitation 0.00 in - - ()
Sea Level Pressure  
Sea Level Pressure 29.86 in    
Wind  
Wind Speed 10 mph (North)    
Max Wind Speed 14 mph    
Max Gust Speed 21 mph    
Visibility 10 miles    
Events      
Averages and records for this station are not official NWS values.
T = Trace of Precipitation, MM = Missing Value Source: NWS Daily Summary

Daily Weather History Graph

Daily Weather History Graph

Search for Another Location

Airport or City:

Trip Planner

Search our weather history database for the weather conditions in past years. The results will help you decide how hot, cold, wet, or windy it might be!

Date:

Astronomy

Jul. 07, 2013 Rise Set
Actual Time 5:43 AM PDT 8:53 PM PDT
Civil Twilight 5:08 AM PDT 9:27 PM PDT
Nautical Twilight 4:24 AM PDT 10:11 PM PDT
Astronomical Twilight 3:31 AM PDT 11:04 PM PDT
Moon 5:25 AM PDT (7/7) 8:18 PM PDT (7/7)
Length of Visible Light 16h 18m
Length of Day
15h 09m
Waning Crescent, 0% of the Moon is Illuminated
Jul 7
Waning Crescent
Jul 8
New
Jul 15
First Quarter
Jul 22
Full
Jul 29
Last Quarter

Hourly Weather History & Observations

Time (PDT) Temp. Dew Point Humidity Pressure Visibility Wind Dir Wind Speed Gust Speed Precip Events Conditions
12:56 AM 53.1 °F 48.0 °F 83% 29.84 in 10.0 mi North 10.4 mph - N/A   Clear
1:56 AM 52.0 °F 48.9 °F 89% 29.84 in 10.0 mi North 12.7 mph - N/A   Clear
2:56 AM 52.0 °F 50.0 °F 93% 29.83 in 10.0 mi North 11.5 mph - N/A   Clear
3:56 AM 53.1 °F 48.9 °F 86% 29.83 in 10.0 mi North 10.4 mph - N/A   Clear
4:56 AM 52.0 °F 48.0 °F 86% 29.83 in 10.0 mi North 11.5 mph - N/A   Clear
5:56 AM 50.0 °F 48.9 °F 96% 29.84 in 8.0 mi North 11.5 mph - N/A   Clear
6:56 AM 51.1 °F 48.9 °F 92% 29.85 in 10.0 mi North 13.8 mph - N/A   Clear
7:15 AM 51.8 °F 50.0 °F 94% 29.96 in 6.0 mi North 13.8 mph - N/A   Partly Cloudy
7:56 AM 53.1 °F 48.9 °F 86% 29.86 in 10.0 mi NNE 13.8 mph - N/A   Clear
8:56 AM 57.0 °F 50.0 °F 77% 29.88 in 10.0 mi NNE 6.9 mph - N/A   Clear
9:56 AM 57.0 °F 51.1 °F 81% 29.89 in 10.0 mi North 5.8 mph - N/A   Clear
10:56 AM 61.0 °F 52.0 °F 72% 29.88 in 10.0 mi NNW 5.8 mph - N/A   Clear
11:56 AM 64.9 °F 51.1 °F 61% 29.88 in 10.0 mi Variable 5.8 mph - N/A   Clear
12:56 PM 69.1 °F 52.0 °F 54% 29.87 in 10.0 mi Variable 5.8 mph - N/A   Clear
1:56 PM 72.0 °F 50.0 °F 46% 29.86 in 10.0 mi Variable 5.8 mph - N/A   Clear
2:56 PM 73.0 °F 46.0 °F 38% 29.84 in 10.0 mi Variable 5.8 mph - N/A   Clear
3:56 PM 73.9 °F 46.0 °F 37% 29.83 in 10.0 mi Variable 4.6 mph 20.7 mph N/A   Clear
4:56 PM 73.9 °F 44.1 °F 34% 29.83 in 10.0 mi Variable 6.9 mph - N/A   Clear
5:56 PM 72.0 °F 45.0 °F 38% 29.84 in 10.0 mi Variable 5.8 mph 17.3 mph N/A   Clear
6:56 PM 69.1 °F 44.1 °F 40% 29.85 in 10.0 mi North 8.1 mph 16.1 mph N/A   Clear
7:56 PM 66.0 °F 46.9 °F 50% 29.86 in 10.0 mi Variable 6.9 mph 18.4 mph N/A   Clear
8:56 PM 62.1 °F 48.9 °F 62% 29.87 in 10.0 mi North 11.5 mph 19.6 mph N/A   Clear
9:56 PM 59.0 °F 53.1 °F 81% 29.91 in 10.0 mi North 10.4 mph 19.6 mph N/A   Clear
10:56 PM 57.0 °F 53.1 °F 87% 29.91 in 10.0 mi North 12.7 mph 18.4 mph N/A   Clear
11:56 PM 55.9 °F 52.0 °F 87% 29.91 in 10.0 mi North 13.8 mph 19.6 mph N/A   Clear